This is the latest recevied weather packets stored in our database for station/object K8RRT. If no packets are shown the sender has not sent any weather packets the latest 10 day(s).
| Time | Temp. | Humidity | Pressure | Rain* | Wind** | Luminosity | Snow |
|---|---|---|---|---|---|---|---|
| 1777048565 | 26.11° C | 50% | 1006.8 hPa | 0 mm | - | 714 W/m² | - |
| 1777048264 | 25.56° C | 51% | 1007.3 hPa | 0 mm | - | 692 W/m² | - |
| 1777047960 | 25.56° C | 49% | 1007.1 hPa | 0 mm | - | 751 W/m² | - |
| 1777047656 | 25° C | 51% | 1007.2 hPa | 0 mm | - | 761 W/m² | - |
| 1777047351 | 25° C | 52% | 1007 hPa | 0 mm | - | 782 W/m² | - |
| 1777047047 | 25.56° C | 55% | 1007.4 hPa | 0 mm | - | 787 W/m² | - |
| 1777046745 | 25° C | 54% | 1007.3 hPa | 0 mm | - | 781 W/m² | - |
| 1777046440 | 25° C | 52% | 1007.7 hPa | 0 mm | - | 798 W/m² | - |
| 1777046136 | 25° C | 52% | 1007.6 hPa | 0 mm | - | 789 W/m² | - |
| 1777045832 | 25° C | 55% | 1007.7 hPa | 0 mm | - | 794 W/m² | - |
| 1777045528 | 24.44° C | 55% | 1007.7 hPa | 0 mm | - | 769 W/m² | - |
| 1777045224 | 24.44° C | 53% | 1007.6 hPa | 0 mm | - | 742 W/m² | - |
| 1777044920 | 24.44° C | 54% | 1007.7 hPa | 0 mm | - | 812 W/m² | - |
| 1777044615 | 24.44° C | 57% | 1007.6 hPa | 0 mm | - | 808 W/m² | - |
| 1777044312 | 23.89° C | 54% | 1007.6 hPa | 0 mm | - | 787 W/m² | - |
| 1777044007 | 23.89° C | 57% | 1007.8 hPa | 0 mm | - | 773 W/m² | - |
| 1777043704 | 23.89° C | 56% | 1007.7 hPa | 0 mm | - | 787 W/m² | - |
| 1777043401 | 23.89° C | 55% | 1007.5 hPa | 0 mm | - | 762 W/m² | - |
| 1777043097 | 23.89° C | 56% | 1007.9 hPa | 0 mm | - | 742 W/m² | - |
| 1777042791 | 23.89° C | 61% | 1007.7 hPa | 0 mm | - | 749 W/m² | - |
| 1777042488 | 23.33° C | 58% | 1007.7 hPa | 0 mm | - | 765 W/m² | - |
| 1777042184 | 23.33° C | 58% | 1007.8 hPa | 0 mm | - | 752 W/m² | - |
| 1777041880 | 23.33° C | 57% | 1007.7 hPa | 0 mm | - | 636 W/m² | - |
| 1777041577 | 22.78° C | 58% | 1007.9 hPa | 0 mm | - | 590 W/m² | - |
| 1777041272 | 22.22° C | 59% | 1008 hPa | 0 mm | - | 655 W/m² | - |
* Rain latest hour (hover to see other rain measurements)
** Current wind speed in m/s (hover to see current wind gust speed)